This demonstration page uses our WeatherBlox Daily Observations layout. Learn more.

Left ArrowRight Arrow

Hourly Observations for June 4, 2020

Temp ( °F °C ) Dew Point ( °F °C ) Humidity (%) Winds ( mph kmh ) Pressure ( in mb ) Visibility ( mi km ) Precip ( " mm )
12:53 am 00:53 Clear 75 23.9 65 18.3 71 71 Calm 29.95 1014 10 16 0.00 0.00
1:53 am 01:53 Mostly Clear 73 22.8 65 18.3 76 76 SSW 5 7 29.94 1014 10 16 0.00 0.00
2:53 am 02:53 Mostly Clear 72 22.2 65 18.3 79 79 WSW 3 6 29.93 1013 10 16 0.00 0.00
3:53 am 03:53 Clear 71 21.7 66 18.9 84 84 Calm 29.92 1013 10 16 0.00 0.00
4:53 am 04:53 Clear 71 21.7 66 18.9 84 84 SSW 5 7 29.92 1013 10 16 0.00 0.00
5:53 am 05:53 Clear 70 21.1 67 19.4 90 90 SSW 5 7 29.94 1014 10 16 0.00 0.00
6:34 am 06:34 Partly Cloudy 70 21.1 67 19.4 90 90 VRB 6 9 29.96 1015 10 16 0.00 0.00
6:48 am 06:48 Mostly Cloudy 70 21 66 19 88 88 SW 7 11 29.97 1015 10 16 0.00 0.00
6:49 am 06:49 Mostly Cloudy 70 21.1 67 19.4 90 90 SW 7 11 29.96 1015 10 16 0.00 0.00
7:01 am 07:01 Mostly Cloudy with Mist and Fog 70 21.1 67 19.4 90 90 WSW 5 7 29.97 1015 6 10 0.00 0.00
7:11 am 07:11 Partly Cloudy 70 21.1 67 19.4 90 90 WSW 3 6 29.97 1015 10 16 0.00 0.00
7:53 am 07:53 Partly Cloudy 71 21.7 67 19.4 87 87 SW 5 7 29.98 1015 10 16 0.00 0.00
8:53 am 08:53 Sunny 75 23.9 68 20 79 79 SSW 3 6 29.97 1015 10 16 0.00 0.00
9:53 am 09:53 Sunny 79 26.1 66 18.9 65 65 WNW 8 13 29.97 1015 10 16 0.00 0.00
10:53 am 10:53 Sunny 81 27.2 66 18.9 61 61 WNW 8 13 29.96 1015 10 16 0.00 0.00
11:53 am 11:53 Partly Cloudy 82 27.8 65 18.3 56 56 VRB 5 7 29.97 1015 10 16 0.00 0.00
12:53 pm 12:53 Partly Cloudy 85 29.4 66 18.9 53 53 VRB 5 7 29.96 1015 10 16 0.00 0.00
1:53 pm 13:53 Mostly Sunny 86 30 64 17.8 48 48 VRB 5 7 29.93 1013 10 16 0.00 0.00
2:53 pm 14:53 Mostly Sunny 87 30.6 63 17.2 45 45 VRB 6 9 29.90 1013 10 16 0.00 0.00
3:53 pm 15:53 Mostly Cloudy 87 30.6 62 16.7 43 43 SSW 8 13 29.88 1012 10 16 0.00 0.00
4:53 pm 16:53 Mostly Sunny 87 30.6 63 17.2 45 45 SW 8 13 29.88 1012 10 16 0.00 0.00
5:53 pm 17:53 Mostly Sunny 86 30 64 17.8 48 48 SW 8 13 29.86 1011 10 16 0.00 0.00
6:53 pm 18:53 Partly Cloudy 87 30.6 64 17.8 46 46 WSW 8 13 29.86 1011 10 16 0.00 0.00
7:46 pm 19:46 Mostly Cloudy with Nearby Thunderstorms 84 28.9 64 17.8 51 51 SSE 9 15 29.85 1011 10 16 0.00 0.00
7:53 pm 19:53 Mostly Cloudy with Nearby Thunderstorms 82 27.8 65 18.3 56 56 S 15 24 29.87 1012 10 16 0.00 0.00
8:19 pm 20:19 Partly Cloudy 81 27.2 66 18.9 61 61 S 6 9 29.87 1011 10 16 0.00 0.00
8:53 pm 20:53 Mostly Cloudy 80 26.7 66 18.9 62 62 S 7 11 29.89 1012 10 16 0.00 0.00
9:53 pm 21:53 Clear 78 25.6 66 18.9 67 67 S 5 7 29.91 1013 10 16 0.00 0.00
10:53 pm 22:53 Clear 79 26.1 66 18.9 65 65 SSE 5 7 29.92 1013 10 16 0.00 0.00
11:53 pm 23:53 Clear 75 23.9 67 19.4 76 76 SW 3 6 29.92 1013 10 16 0.00 0.00

Powered by AerisWeather